Location: Newark
(45.2500°N, 7.5833°E)
Time: 14:21:38
(UTC+00:00)

Explorer 11/Cluster Stage 4 - All Passes

Search period start: 19 January 2020 00:00
Search period end: 29 January 2020 00:00
Orbit: 467 x 1259 km, 28.8° (Epoch: 18 January)

Date Brightness Start Highest point End Pass type
(mag) Time Alt. Az. Time Alt. Az. Time Alt. Az.
19 Jan - 16:35:59 10° SSW 16:39:01 14° S 16:41:47 10° SE daylight
19 Jan - 18:24:12 10° SW 18:26:37 13° S 18:28:50 10° SSE visible
20 Jan - 16:24:27 10° SSW 16:28:09 15° S 16:31:29 10° SE daylight
20 Jan - 18:13:02 10° SW 18:15:47 13° S 18:18:18 10° SSE visible
21 Jan - 14:26:52 10° S 14:29:24 12° SSE 14:31:50 10° SE daylight
21 Jan - 16:13:02 10° SW 16:17:16 17° S 16:21:04 10° SE daylight
21 Jan - 18:01:54 10° SW 18:04:56 14° SSW 18:07:41 10° SSE visible
22 Jan - 14:14:51 10° SSW 14:18:27 14° SSE 14:21:50 10° SE daylight
22 Jan - 16:01:42 10° SW 16:06:22 18° S 16:10:33 10° SE daylight
22 Jan - 17:50:48 10° SW 17:54:03 14° SSW 17:57:00 10° SSE visible
23 Jan - 14:03:09 10° SSW 14:07:28 16° SSE 14:11:32 10° SE daylight
23 Jan - 15:50:24 10° SW 15:55:27 20° S 15:59:57 10° SE daylight
23 Jan - 17:39:45 10° SW 17:43:09 14° SSW 17:46:15 10° SSE visible
24 Jan - 13:51:35 10° SSW 13:56:29 17° SSE 14:01:05 10° SE daylight
24 Jan - 15:39:10 10° SW 15:44:29 20° S 15:49:17 10° SE daylight
24 Jan - 17:28:44 10° SW 17:32:13 14° SSW 17:35:25 10° SSE visible
25 Jan - 13:40:10 10° SSW 13:45:28 19° SSE 13:50:30 10° SE daylight
25 Jan - 15:27:59 10° SW 15:33:32 21° S 15:38:33 10° SE daylight
25 Jan - 17:17:46 10° SW 17:21:17 14° SSW 17:24:31 10° S visible
26 Jan - 11:44:03 10° S 11:46:30 12° SSE 11:48:58 10° SE daylight
26 Jan - 13:28:50 10° SSW 13:34:27 20° S 13:39:49 10° SE daylight
26 Jan - 15:16:50 10° SW 15:22:32 22° S 15:27:46 10° SE daylight
26 Jan - 17:06:52 10° SW 17:10:18 14° SSW 17:13:30 10° S visible
27 Jan - 11:32:04 10° S 11:35:27 13° SSE 11:38:50 10° SE daylight
27 Jan - 13:17:34 10° SW 13:23:25 22° S 13:29:04 10° SE daylight
27 Jan - 15:05:43 10° SW 15:11:32 22° S 15:16:54 10° SE daylight
27 Jan - 16:56:02 10° SW 16:59:19 13° SSW 17:02:23 10° S visible
28 Jan - 11:20:25 10° S 11:24:23 14° SSE 11:28:23 10° SE daylight
28 Jan - 13:06:23 10° SW 13:12:23 23° S 13:18:15 10° SE daylight
28 Jan - 14:54:40 10° SW 15:00:31 22° S 15:06:00 10° SE daylight
28 Jan - 16:45:19 10° SW 16:48:17 13° SSW 16:51:07 10° S daylight
